STARLINK-34421

Last updated on Thu Jul 03 2025 00:02:07 GMT+0000 (Coordinated Universal Time)

1 64459U 25130X 25183.58335648 .00000321 00000+0 64959-5 0 9993 2 64459 53.1562 179.7242 0001449 62.9060 80.8857 15.74172464 3500
UTC large
Height (km)
Speed (km/s)
/
Latitude / Longitude
Inclination (degrees)
Orbital Period (minutes)
Azimuth
Elevation
Range (km)
Doppler Factor

Next 0 passes for location: London (51.5072 / 0.1276)

Sorry there are no passes over London.